QPF
0.10 0.09 0.10 0.07 0.05 0.05 0.04 0.04 0.02 0.03 0.03 0.03 0.05 0.05 0.04 0.04 0.04 0.03 0.04 0.04 0.04 0.05 0.04 0.02 0.02 0.02 0.02 0.02 0.03 0.03 0.03 0.05 0.04 0.04 0.06 0.05 0.05 0.05 0.06 0.08 0.08 0.07 0.04
0.07 0.07 0.08 0.08 0.06 0.05 0.02 0.02 0.01 0.01 0.02 0.03 0.05 0.05 0.05 0.05 0.05 0.05 0.04 0.04 0.04 0.03 0.02 0.01 0.02 0.02 0.02 0.03 0.02 0.03 0.04 0.05 0.04 0.03 0.04 0.03 0.04 0.03 0.04 0.05 0.06 0.06 0.04
0.08 0.06 0.06 0.08 0.07 0.05 0.03 0.03 0.03 0.04 0.04 0.04 0.04 0.04 0.05 0.07 0.07 0.07 0.06 0.05 0.05 0.04 0.02 0.02 0.01 0.01 0.01 0.02 0.01 0.02 0.03 0.04 0.04 0.03 0.03 0.03 0.03 0.04 0.04 0.03 0.03 0.04 0.03
0.07 0.09 0.06 0.06 0.06 0.05 0.05 0.04 0.04 0.04 0.04 0.04 0.05 0.06 0.06 0.09 0.10 0.11 0.11 0.09 0.08 0.06 0.04 0.02 0.02 0.01 0.01 0.01 0.01 0.01 0.02 0.03 0.03 0.04 0.05 0.03 0.02 0.03 0.03 0.02 0.02 0.03 0.04
0.07 0.10 0.10 0.07 0.06 0.05 0.05 0.05 0.05 0.04 0.04 0.04 0.04 0.05 0.06 0.10 0.13 0.11 0.10 0.09 0.08 0.06 0.04 0.03 0.02 0.01 0.00 0.01 0.01 0.02 0.02 0.03 0.04 0.05 0.04 0.03 0.03 0.03 0.03 0.03 0.03 0.03 0.03
0.05 0.07 0.08 0.07 0.06 0.06 0.06 0.07 0.07 0.08 0.07 0.06 0.05 0.05 0.08 0.15 0.12 0.08 0.07 0.06 0.06 0.06 0.05 0.04 0.02 0.01 0.01 0.02 0.02 0.03 0.04 0.03 0.02 0.03 0.03 0.04 0.04 0.03 0.03 0.04 0.04 0.04 0.03
0.02 0.05 0.06 0.05 0.05 0.06 0.07 0.08 0.09 0.10 0.10 0.07 0.05 0.06 0.07 0.09 0.10 0.09 0.06 0.05 0.05 0.05 0.05 0.05 0.04 0.02 0.02 0.02 0.02 0.03 0.03 0.02 0.02 0.02 0.02 0.03 0.05 0.04 0.03 0.03 0.04 0.04 0.03
0.02 0.03 0.04 0.04 0.04 0.05 0.07 0.10 0.10 0.08 0.09 0.11 0.11 0.10 0.08 0.05 0.05 0.04 0.06 0.05 0.04 0.03 0.03 0.04 0.06 0.06 0.04 0.03 0.03 0.02 0.02 0.01 0.01 0.01 0.01 0.02 0.03 0.04 0.05 0.04 0.04 0.06 0.05
0.03 0.03 0.04 0.04 0.05 0.05 0.06 0.10 0.11 0.09 0.08 0.09 0.11 0.12 0.10 0.10 0.09 0.05 0.05 0.04 0.02 0.02 0.02 0.02 0.03 0.04 0.05 0.04 0.03 0.03 0.02 0.01 0.01 0.01 0.01 0.02 0.03 0.03 0.05 0.06 0.06 0.06 0.06
0.03 0.02 0.04 0.05 0.05 0.05 0.06 0.09 0.10 0.09 0.09 0.10 0.11 0.11 0.09 0.09 0.07 0.05 0.05 0.03 0.02 0.01 0.02 0.02 0.02 0.01 0.02 0.03 0.05 0.04 0.03 0.02 0.02 0.02 0.02 0.02 0.02 0.03 0.03 0.05 0.07 0.07 0.07
0.02 0.02 0.03 0.05 0.05 0.04 0.06 0.08 0.07 0.05 0.07 0.09 0.09 0.10 0.10 0.09 0.07 0.04 0.03 0.02 0.02 0.02 0.02 0.01 0.01 0.01 0.01 0.01 0.01 0.02 0.02 0.02 0.01 0.02 0.03 0.02 0.02 0.03 0.03 0.03 0.05 0.07 0.08
0.01 0.02 0.02 0.02 0.03 0.04 0.05 0.05 0.05 0.05 0.06 0.06 0.06 0.06 0.06 0.07 0.07 0.04 0.03 0.03 0.03 0.01 0.01 0.01 0.01 0.02 0.02 0.01 0.01 0.01 0.01 0.01 0.01 0.01 0.01 0.02 0.01 0.02 0.03 0.02 0.03 0.04 0.05
0.01 0.02 0.02 0.02 0.03 0.04 0.04 0.04 0.05 0.06 0.05 0.05 0.04 0.04 0.03 0.04 0.04 0.04 0.04 0.04 0.03 0.02 0.01 0.01 0.01 0.02 0.02 0.02 0.03 0.02 0.02 0.02 0.02 0.01 0.02 0.03 0.02 0.02 0.02 0.03 0.03 0.03 0.04
0.02 0.02 0.02 0.03 0.03 0.03 0.03 0.05 0.06 0.05 0.05 0.06 0.06 0.05 0.04 0.04 0.03 0.03 0.03 0.04 0.03 0.02 0.02 0.02 0.03 0.03 0.02 0.02 0.02 0.02 0.02 0.01 0.02 0.02 0.02 0.04 0.05 0.05 0.05 0.04 0.04 0.05 0.05
0.03 0.03 0.03 0.03 0.03 0.03 0.03 0.05 0.07 0.07 0.05 0.06 0.05 0.05 0.04 0.04 0.04 0.04 0.03 0.03 0.02 0.02 0.02 0.01 0.01 0.01 0.01 0.01 0.02 0.02 0.02 0.01 0.01 0.01 0.02 0.04 0.05 0.04 0.04 0.05 0.05 0.06 0.05
0.02 0.03 0.03 0.03 0.03 0.04 0.05 0.05 0.05 0.07 0.07 0.06 0.05 0.04 0.03 0.03 0.03 0.03 0.03 0.03 0.03 0.03 0.03 0.01 0.01 0.01 0.01 0.01 0.01 0.01 0.01 0.01 0.01 0.01 0.02 0.03 0.05 0.05 0.04 0.04 0.05 0.05 0.05
0.02 0.02 0.03 0.03 0.03 0.03 0.03 0.04 0.04 0.05 0.06 0.05 0.05 0.05 0.04 0.03 0.02 0.02 0.02 0.02 0.02 0.03 0.02 0.01 0.02 0.01 0.01 0.01 0.01 0.02 0.03 0.02 0.02 0.02 0.02 0.03 0.03 0.04 0.04 0.03 0.04 0.05 0.05
0.04 0.02 0.03 0.04 0.03 0.03 0.03 0.03 0.03 0.03 0.03 0.03 0.03 0.04 0.04 0.04 0.02 0.02 0.03 0.02 0.02 0.02 0.02 0.03 0.03 0.02 0.01 0.01 0.01 0.01 0.01 0.02 0.02 0.03 0.04 0.03 0.03 0.02 0.03 0.03 0.03 0.04 0.04
0.04 0.03 0.03 0.04 0.04 0.03 0.04 0.04 0.03 0.03 0.03 0.02 0.02 0.02 0.04 0.04 0.04 0.03 0.02 0.02 0.01 0.01 0.02 0.02 0.02 0.01 0.01 0.01 0.01 0.01 0.01 0.01 0.03 0.03 0.03 0.03 0.02 0.02 0.02 0.02 0.03 0.02 0.03
0.03 0.03 0.03 0.04 0.04 0.05 0.04 0.04 0.04 0.04 0.05 0.04 0.02 0.02 0.04 0.04 0.04 0.04 0.03 0.02 0.02 0.02 0.02 0.02 0.02 0.01 0.01 0.01 0.01 0.01 0.02 0.02 0.03 0.04 0.03 0.02 0.01 0.01 0.01 0.02 0.02 0.02 0.02
0.04 0.03 0.03 0.04 0.05 0.05 0.05 0.05 0.05 0.04 0.04 0.06 0.06 0.04 0.04 0.03 0.03 0.03 0.04 0.04 0.03 0.03 0.04 0.04 0.04 0.04 0.04 0.04 0.04 0.03 0.03 0.03 0.04 0.04 0.03 0.02 0.01 0.01 0.01 0.01 0.01 0.02 0.02
0.05 0.04 0.04 0.04 0.04 0.05 0.06 0.06 0.05 0.05 0.04 0.04 0.05 0.05 0.04 0.03 0.03 0.03 0.03 0.04 0.04 0.04 0.04 0.04 0.03 0.04 0.05 0.06 0.06 0.07 0.07 0.07 0.06 0.06 0.04 0.03 0.02 0.02 0.02 0.01 0.01 0.02 0.03
0.06 0.05 0.04 0.04 0.04 0.06 0.06 0.06 0.06 0.05 0.05 0.03 0.03 0.03 0.03 0.02 0.02 0.02 0.02 0.02 0.03 0.03 0.03 0.03 0.03 0.02 0.03 0.03 0.05 0.07 0.08 0.09 0.10 0.11 0.11 0.08 0.05 0.03 0.03 0.02 0.03 0.04 0.04
0.09 0.09 0.06 0.05 0.07 0.06 0.05 0.04 0.04 0.04 0.04 0.03 0.03 0.03 0.03 0.02 0.02 0.02 0.02 0.02 0.01 0.02 0.02 0.02 0.02 0.02 0.02 0.02 0.02 0.02 0.03 0.04 0.05 0.07 0.08 0.08 0.07 0.07 0.07 0.07 0.06 0.06 0.05
0.11 0.09 0.05 0.05 0.06 0.05 0.04 0.03 0.02 0.01 0.02 0.02 0.02 0.03 0.03 0.03 0.02 0.02 0.02 0.02 0.01 0.01 0.02 0.02 0.02 0.02 0.03 0.02 0.02 0.02 0.02 0.02 0.02 0.02 0.01 0.02 0.03 0.04 0.05 0.06 0.07 0.07 0.07
0.07 0.07 0.05 0.04 0.04 0.03 0.02 0.01 0.01 0.01 0.01 0.01 0.01 0.01 0.02 0.02 0.02 0.02 0.02 0.02 0.02 0.03 0.02 0.02 0.02 0.03 0.03 0.02 0.02 0.02 0.02 0.02 0.02 0.01 0.01 0.01 0.01 0.01 0.02 0.03 0.04 0.05 0.05
MSLP
1008.04 1007.89 1007.83 1007.82 1007.85 1007.88 1007.91 1007.96 1008.05 1008.21 1008.47 1008.83 1009.29 1009.86 1010.48 1011.15 1011.81 1012.45 1013.05 1013.59 1014.09 1014.54 1014.97 1015.38 1015.79 1016.20 1016.62 1017.05 1017.47 1017.88 1018.29 1018.67 1019.01 1019.31 1019.57 1019.76 1019.89 1019.96 1019.97 1019.95 1019.90 1019.84 1019.80
1007.35 1007.10 1006.96 1006.90 1006.90 1006.94 1007.01 1007.12 1007.28 1007.51 1007.83 1008.25 1008.77 1009.37 1010.03 1010.71 1011.39 1012.05 1012.67 1013.23 1013.73 1014.19 1014.62 1015.03 1015.43 1015.83 1016.25 1016.68 1017.13 1017.59 1018.04 1018.48 1018.90 1019.27 1019.58 1019.81 1019.97 1020.04 1020.04 1019.98 1019.88 1019.78 1019.69
1006.53 1006.18 1005.96 1005.86 1005.83 1005.89 1006.00 1006.18 1006.43 1006.75 1007.16 1007.66 1008.23 1008.88 1009.57 1010.28 1010.99 1011.66 1012.30 1012.87 1013.40 1013.88 1014.32 1014.73 1015.14 1015.55 1015.97 1016.40 1016.86 1017.34 1017.82 1018.30 1018.76 1019.17 1019.53 1019.80 1019.98 1020.07 1020.07 1020.01 1019.89 1019.75 1019.63
1005.61 1005.17 1004.88 1004.72 1004.68 1004.75 1004.91 1005.16 1005.50 1005.92 1006.43 1007.01 1007.66 1008.36 1009.09 1009.82 1010.55 1011.24 1011.89 1012.49 1013.04 1013.55 1014.01 1014.45 1014.87 1015.29 1015.72 1016.16 1016.62 1017.10 1017.59 1018.08 1018.56 1019.00 1019.38 1019.69 1019.90 1020.02 1020.05 1020.00 1019.89 1019.75 1019.61
1004.65 1004.12 1003.75 1003.55 1003.48 1003.57 1003.77 1004.09 1004.51 1005.03 1005.63 1006.30 1007.02 1007.77 1008.54 1009.29 1010.03 1010.74 1011.40 1012.02 1012.59 1013.13 1013.63 1014.10 1014.56 1015.00 1015.44 1015.89 1016.35 1016.82 1017.31 1017.79 1018.27 1018.71 1019.12 1019.45 1019.71 1019.87 1019.95 1019.94 1019.87 1019.75 1019.62
1003.72 1003.11 1002.67 1002.41 1002.33 1002.41 1002.64 1003.02 1003.51 1004.11 1004.80 1005.54 1006.31 1007.11 1007.89 1008.66 1009.40 1010.11 1010.78 1011.41 1012.01 1012.58 1013.11 1013.63 1014.13 1014.61 1015.07 1015.54 1016.00 1016.47 1016.94 1017.41 1017.88 1018.32 1018.74 1019.10 1019.40 1019.62 1019.76 1019.81 1019.80 1019.73 1019.63
1002.91 1002.23 1001.73 1001.41 1001.29 1001.35 1001.60 1002.00 1002.55 1003.20 1003.95 1004.74 1005.56 1006.37 1007.17 1007.94 1008.67 1009.36 1010.03 1010.66 1011.27 1011.87 1012.45 1013.01 1013.56 1014.08 1014.59 1015.08 1015.56 1016.02 1016.49 1016.95 1017.40 1017.85 1018.27 1018.66 1019.00 1019.28 1019.49 1019.62 1019.68 1019.67 1019.61
1002.33 1001.59 1001.02 1000.64 1000.46 1000.49 1000.71 1001.11 1001.67 1002.36 1003.13 1003.95 1004.79 1005.61 1006.40 1007.15 1007.86 1008.53 1009.17 1009.80 1010.42 1011.04 1011.66 1012.27 1012.87 1013.45 1014.00 1014.53 1015.03 1015.51 1015.98 1016.44 1016.89 1017.33 1017.76 1018.18 1018.55 1018.89 1019.16 1019.36 1019.49 1019.55 1019.55
1002.04 1001.24 1000.60 1000.15 999.90 999.87 1000.04 1000.42 1000.96 1001.63 1002.40 1003.22 1004.05 1004.86 1005.63 1006.35 1007.03 1007.67 1008.29 1008.91 1009.53 1010.16 1010.81 1011.47 1012.12 1012.75 1013.37 1013.94 1014.48 1014.99 1015.47 1015.93 1016.38 1016.82 1017.26 1017.68 1018.09 1018.46 1018.78 1019.04 1019.24 1019.36 1019.41
1002.05 1001.20 1000.50 999.97 999.64 999.52 999.62 999.93 1000.42 1001.05 1001.79 1002.58 1003.39 1004.17 1004.91 1005.60 1006.25 1006.86 1007.45 1008.05 1008.67 1009.32 1009.99 1010.68 1011.38 1012.07 1012.73 1013.36 1013.94 1014.48 1014.98 1015.45 1015.90 1016.35 1016.78 1017.21 1017.63 1018.02 1018.37 1018.67 1018.91 1019.07 1019.17
1002.36 1001.46 1000.69 1000.07 999.65 999.44 999.45 999.67 1000.08 1000.64 1001.32 1002.06 1002.82 1003.57 1004.28 1004.94 1005.55 1006.13 1006.70 1007.29 1007.90 1008.55 1009.24 1009.96 1010.69 1011.43 1012.14 1012.81 1013.43 1014.00 1014.53 1015.01 1015.47 1015.91 1016.34 1016.76 1017.17 1017.56 1017.92 1018.23 1018.49 1018.69 1018.81
1002.89 1001.95 1001.12 1000.42 999.90 999.58 999.48 999.60 999.91 1000.39 1000.99 1001.66 1002.37 1003.07 1003.74 1004.36 1004.94 1005.50 1006.05 1006.62 1007.22 1007.87 1008.57 1009.31 1010.07 1010.83 1011.58 1012.28 1012.94 1013.54 1014.09 1014.59 1015.05 1015.49 1015.90 1016.31 1016.70 1017.07 1017.42 1017.73 1018.00 1018.20 1018.35
1003.58 1002.61 1001.71 1000.94 1000.33 999.91 999.70 999.71 999.91 1000.28 1000.79 1001.38 1002.01 1002.65 1003.27 1003.85 1004.40 1004.93 1005.46 1006.01 1006.60 1007.24 1007.93 1008.67 1009.45 1010.23 1011.00 1011.73 1012.42 1013.04 1013.61 1014.13 1014.60 1015.03 1015.44 1015.83 1016.20 1016.55 1016.88 1017.17 1017.43 1017.63 1017.79
1004.35 1003.36 1002.42 1001.59 1000.90 1000.39 1000.08 999.97 1000.06 1000.32 1000.71 1001.20 1001.74 1002.30 1002.85 1003.38 1003.88 1004.37 1004.87 1005.39 1005.95 1006.58 1007.25 1007.99 1008.75 1009.54 1010.32 1011.07 1011.78 1012.43 1013.03 1013.56 1014.05 1014.49 1014.90 1015.29 1015.65 1015.99 1016.30 1016.57 1016.82 1017.02 1017.17
1005.17 1004.17 1003.21 1002.35 1001.60 1001.02 1000.62 1000.41 1000.38 1000.51 1000.78 1001.14 1001.57 1002.02 1002.47 1002.91 1003.35 1003.78 1004.22 1004.69 1005.22 1005.80 1006.45 1007.16 1007.91 1008.69 1009.47 1010.24 1010.97 1011.65 1012.28 1012.85 1013.37 1013.84 1014.27 1014.67 1015.04 1015.38 1015.68 1015.96 1016.19 1016.39 1016.54
1006.01 1005.03 1004.09 1003.22 1002.45 1001.82 1001.34 1001.04 1000.89 1000.89 1001.02 1001.23 1001.51 1001.83 1002.15 1002.47 1002.80 1003.14 1003.50 1003.90 1004.36 1004.88 1005.48 1006.15 1006.88 1007.64 1008.42 1009.19 1009.95 1010.67 1011.34 1011.95 1012.52 1013.05 1013.53 1013.96 1014.37 1014.73 1015.06 1015.34 1015.59 1015.79 1015.95
1006.91 1005.98 1005.07 1004.23 1003.46 1002.81 1002.29 1001.90 1001.64 1001.51 1001.48 1001.54 1001.65 1001.79 1001.94 1002.11 1002.30 1002.50 1002.74 1003.04 1003.41 1003.85 1004.39 1005.00 1005.68 1006.42 1007.19 1007.98 1008.75 1009.51 1010.23 1010.91 1011.55 1012.14 1012.68 1013.19 1013.64 1014.06 1014.43 1014.74 1015.01 1015.23 1015.40
1007.88 1007.02 1006.19 1005.40 1004.67 1004.02 1003.47 1003.02 1002.67 1002.41 1002.23 1002.11 1002.03 1001.97 1001.94 1001.92 1001.93 1001.97 1002.07 1002.23 1002.48 1002.83 1003.27 1003.82 1004.44 1005.15 1005.90 1006.68 1007.48 1008.27 1009.04 1009.78 1010.49 1011.15 1011.77 1012.35 1012.87 1013.35 1013.78 1014.14 1014.45 1014.70 1014.89
1008.95 1008.19 1007.45 1006.73 1006.06 1005.45 1004.90 1004.41 1003.98 1003.61 1003.28 1002.99 1002.72 1002.47 1002.23 1002.02 1001.83 1001.70 1001.62 1001.64 1001.75 1001.98 1002.32 1002.77 1003.33 1003.98 1004.70 1005.47 1006.27 1007.07 1007.87 1008.66 1009.42 1010.14 1010.83 1011.47 1012.06 1012.60 1013.08 1013.50 1013.86 1014.14 1014.36
1010.11 1009.46 1008.83 1008.21 1007.62 1007.06 1006.52 1006.02 1005.54 1005.08 1004.63 1004.19 1003.75 1003.32 1002.90 1002.49 1002.12 1001.81 1001.57 1001.42 1001.39 1001.49 1001.71 1002.07 1002.54 1003.11 1003.77 1004.49 1005.26 1006.05 1006.85 1007.64 1008.42 1009.17 1009.89 1010.56 1011.20 1011.78 1012.31 1012.78 1013.17 1013.50 1013.76
1011.35 1010.81 1010.28 1009.77 1009.27 1008.77 1008.28 1007.78 1007.28 1006.77 1006.24 1005.69 1005.12 1004.55 1003.97 1003.40 1002.88 1002.41 1002.01 1001.73 1001.56 1001.53 1001.63 1001.87 1002.23 1002.70 1003.27 1003.91 1004.60 1005.33 1006.08 1006.83 1007.57 1008.29 1008.99 1009.67 1010.30 1010.89 1011.44 1011.93 1012.36 1012.72 1013.01
1012.60 1012.16 1011.74 1011.33 1010.91 1010.49 1010.06 1009.59 1009.10 1008.57 1008.01 1007.40 1006.76 1006.09 1005.42 1004.75 1004.11 1003.52 1003.02 1002.62 1002.33 1002.18 1002.16 1002.27 1002.51 1002.86 1003.30 1003.82 1004.39 1005.00 1005.63 1006.28 1006.92 1007.56 1008.19 1008.80 1009.39 1009.95 1010.47 1010.96 1011.40 1011.78 1012.11
1013.82 1013.47 1013.14 1012.81 1012.47 1012.13 1011.75 1011.34 1010.89 1010.38 1009.83 1009.22 1008.56 1007.87 1007.16 1006.45 1005.76 1005.12 1004.55 1004.07 1003.70 1003.44 1003.31 1003.30 1003.41 1003.61 1003.90 1004.25 1004.66 1005.11 1005.57 1006.05 1006.54 1007.04 1007.53 1008.03 1008.51 1008.99 1009.46 1009.91 1010.33 1010.71 1011.05
1014.96 1014.68 1014.41 1014.15 1013.88 1013.60 1013.28 1012.93 1012.54 1012.08 1011.57 1011.01 1010.39 1009.74 1009.05 1008.36 1007.69 1007.04 1006.46 1005.94 1005.52 1005.20 1004.97 1004.85 1004.81 1004.86 1004.98 1005.15 1005.36 1005.61 1005.87 1006.15 1006.45 1006.75 1007.07 1007.41 1007.76 1008.13 1008.50 1008.88 1009.25 1009.61 1009.95
1015.99 1015.75 1015.53 1015.32 1015.10 1014.86 1014.60 1014.31 1013.98 1013.59 1013.16 1012.67 1012.13 1011.55 1010.95 1010.33 1009.71 1009.12 1008.56 1008.05 1007.61 1007.24 1006.95 1006.72 1006.56 1006.46 1006.41 1006.39 1006.40 1006.44 1006.48 1006.55 1006.63 1006.74 1006.87 1007.03 1007.22 1007.45 1007.70 1007.99 1008.29 1008.59 1008.90
1016.90 1016.69 1016.50 1016.31 1016.12 1015.92 1015.70 1015.45 1015.18 1014.87 1014.51 1014.12 1013.68 1013.21 1012.71 1012.19 1011.67 1011.15 1010.65 1010.18 1009.75 1009.36 1009.02 1008.71 1008.45 1008.22 1008.01 1007.82 1007.65 1007.49 1007.34 1007.20 1007.09 1007.00 1006.95 1006.94 1006.97 1007.06 1007.19 1007.36 1007.57 1007.81 1008.06
Thickness
5738 5735 5732 5730 5728 5726 5725 5724 5723 5721 5719 5717 5716 5714 5712 5711 5710 5708 5707 5706 5704 5703 5703 5702 5701 5701 5700 5699 5698 5696 5695 5692 5686 5686 5687 5687 5686 5685 5684 5683 5682 5680 5679
5734 5731 5728 5725 5723 5721 5721 5721 5720 5718 5716 5715 5713 5711 5709 5707 5706 5705 5704 5703 5701 5700 5699 5698 5697 5697 5695 5694 5693 5692 5691 5690 5686 5682 5682 5682 5682 5681 5680 5679 5678 5676 5675
5729 5726 5722 5720 5719 5717 5717 5717 5716 5714 5712 5711 5709 5707 5705 5704 5703 5702 5700 5699 5697 5696 5695 5694 5692 5692 5690 5689 5688 5687 5686 5686 5683 5680 5677 5677 5676 5676 5675 5674 5673 5671 5671
5723 5720 5717 5716 5714 5714 5713 5713 5712 5711 5709 5707 5706 5704 5702 5700 5699 5698 5696 5694 5692 5691 5691 5690 5689 5687 5685 5684 5683 5682 5681 5679 5677 5674 5672 5670 5670 5671 5669 5667 5665 5665 5665
5717 5714 5712 5712 5711 5710 5709 5709 5708 5707 5706 5703 5701 5700 5698 5696 5695 5693 5692 5690 5687 5686 5686 5685 5685 5684 5683 5681 5680 5677 5676 5673 5670 5668 5665 5664 5663 5663 5662 5662 5660 5659 5659
5712 5710 5709 5708 5707 5705 5704 5704 5703 5702 5700 5699 5697 5695 5693 5693 5691 5690 5689 5686 5684 5682 5681 5680 5680 5679 5678 5677 5677 5675 5673 5670 5666 5663 5660 5659 5658 5658 5658 5657 5655 5653 5652
5707 5706 5705 5703 5701 5700 5700 5699 5697 5696 5695 5693 5691 5690 5688 5688 5687 5686 5685 5683 5680 5678 5676 5675 5676 5675 5674 5672 5671 5670 5669 5668 5667 5663 5659 5657 5656 5656 5655 5653 5651 5649 5648
5703 5701 5700 5699 5698 5696 5694 5693 5692 5691 5689 5687 5685 5684 5683 5682 5682 5681 5680 5678 5675 5673 5672 5671 5669 5668 5669 5667 5665 5663 5662 5662 5662 5660 5659 5657 5656 5655 5653 5651 5649 5647 5646
5699 5698 5697 5696 5694 5692 5690 5688 5688 5686 5685 5683 5681 5679 5678 5677 5676 5676 5674 5672 5669 5668 5667 5666 5665 5663 5664 5663 5660 5657 5656 5656 5658 5657 5656 5655 5653 5652 5650 5647 5644 5641 5639
5695 5694 5694 5692 5690 5688 5686 5685 5684 5683 5681 5679 5677 5676 5674 5673 5672 5671 5670 5667 5664 5662 5661 5661 5660 5659 5658 5657 5655 5653 5651 5650 5651 5651 5650 5649 5648 5647 5646 5644 5641 5637 5634
5692 5691 5690 5688 5687 5685 5682 5681 5679 5678 5676 5674 5672 5671 5670 5670 5669 5667 5665 5662 5660 5657 5655 5655 5655 5655 5654 5653 5651 5649 5648 5647 5645 5644 5642 5642 5641 5641 5640 5639 5638 5636 5632
5688 5686 5684 5683 5683 5681 5678 5676 5675 5673 5670 5668 5666 5665 5665 5665 5664 5662 5661 5659 5657 5654 5652 5651 5651 5650 5649 5648 5646 5645 5644 5642 5639 5637 5636 5635 5634 5634 5635 5634 5634 5633 5632
5681 5680 5679 5679 5677 5676 5673 5671 5669 5667 5665 5663 5661 5660 5659 5659 5658 5657 5655 5654 5652 5650 5648 5648 5646 5645 5644 5642 5642 5640 5638 5635 5633 5631 5629 5629 5630 5630 5629 5629 5629 5627 5627
5675 5673 5673 5672 5670 5669 5668 5666 5664 5662 5660 5658 5656 5655 5654 5653 5652 5651 5649 5647 5645 5644 5642 5641 5641 5639 5638 5636 5635 5634 5632 5630 5628 5626 5625 5625 5625 5624 5622 5622 5620 5619 5618
5668 5667 5666 5666 5664 5662 5661 5659 5659 5658 5658 5656 5654 5651 5649 5647 5648 5648 5645 5642 5640 5638 5636 5634 5632 5630 5629 5628 5627 5626 5625 5624 5622 5621 5620 5618 5618 5617 5616 5615 5613 5612 5609
5661 5660 5659 5658 5657 5656 5654 5652 5653 5653 5653 5652 5651 5649 5647 5646 5644 5642 5640 5638 5635 5633 5629 5626 5624 5623 5622 5621 5620 5619 5619 5618 5617 5616 5614 5613 5612 5611 5609 5609 5607 5604 5603
5656 5654 5653 5652 5651 5649 5648 5646 5644 5644 5644 5644 5643 5642 5641 5639 5637 5635 5633 5631 5629 5626 5622 5621 5619 5618 5616 5615 5614 5613 5612 5612 5611 5610 5609 5607 5606 5604 5603 5601 5600 5598 5596
5649 5648 5647 5646 5644 5643 5641 5639 5638 5636 5635 5634 5634 5633 5633 5631 5629 5627 5625 5622 5619 5617 5617 5616 5614 5613 5611 5610 5608 5607 5606 5605 5604 5603 5601 5600 5599 5598 5596 5595 5593 5592 5590
5643 5641 5640 5639 5638 5637 5635 5633 5631 5629 5628 5626 5625 5625 5624 5622 5620 5618 5616 5614 5613 5612 5611 5611 5609 5608 5606 5604 5603 5602 5600 5599 5597 5596 5595 5594 5592 5591 5590 5588 5587 5586 5584
5636 5636 5635 5633 5631 5629 5627 5625 5624 5622 5620 5620 5619 5618 5615 5613 5611 5610 5608 5607 5606 5606 5605 5604 5603 5601 5600 5598 5596 5595 5594 5592 5591 5590 5589 5587 5586 5585 5583 5582 5581 5579 5578
5630 5629 5628 5625 5623 5621 5620 5618 5617 5616 5615 5614 5614 5613 5610 5608 5606 5605 5602 5601 5600 5599 5597 5596 5595 5594 5592 5591 5590 5589 5587 5586 5584 5583 5582 5581 5580 5579 5578 5577 5576 5575 5573
5623 5622 5619 5618 5616 5614 5613 5612 5611 5609 5609 5608 5606 5605 5602 5601 5600 5598 5596 5595 5594 5593 5591 5590 5588 5586 5585 5583 5582 5581 5580 5579 5578 5577 5576 5575 5574 5573 5572 5570 5569 5568 5567
5616 5614 5612 5610 5609 5608 5607 5606 5605 5603 5602 5601 5600 5598 5596 5594 5593 5591 5589 5588 5587 5585 5584 5582 5580 5579 5577 5577 5576 5575 5573 5572 5571 5570 5569 5568 5567 5566 5565 5564 5563 5561 5560
5609 5608 5606 5604 5602 5601 5600 5599 5598 5597 5596 5595 5593 5592 5590 5588 5586 5584 5583 5581 5579 5577 5576 5574 5573 5572 5570 5569 5569 5568 5567 5566 5565 5564 5563 5562 5560 5559 5558 5558 5556 5556 5554
5603 5601 5600 5598 5596 5595 5594 5593 5592 5591 5590 5588 5587 5585 5583 5581 5579 5577 5575 5573 5571 5569 5568 5567 5566 5565 5564 5563 5562 5561 5561 5560 5559 5558 5557 5555 5553 5553 5552 5551 5550 5549 5548
5595 5595 5593 5592 5591 5589 5587 5587 5586 5585 5583 5582 5580 5577 5575 5573 5571 5569 5567 5565 5564 5562 5561 5559 5558 5558 5557 5556 5555 5554 5554 5553 5552 5551 5549 5548 5547 5546 5545 5544 5543 5542 5542